EW9837 Weather Reports


Display with metric or nautical units.
time (UTC)temp
F
wind
direction
speed
MPH
gust
MPH
rain 1hr
in
rain 24hr
in
rain mn
in
humidity
%
barometer
mb
20260902171529 59 310 1.0 5.0 0.00 0.00 0.00 77 1010.6
20260902170035 58 325 2.0 4.0 0.00 0.00 0.00 78 1010.7
20260902164534 57 317 2.0 4.0 0.00 0.00 0.00 79 1010.9
20260902163030 57 5 3.0 5.0 0.00 0.00 0.00 80 1011.0
20260902161534 57 50 2.0 5.0 0.00 0.00 0.00 81 1011.2
20260902160035 57 36 2.0 5.0 0.00 0.00 0.00 81 1011.4
20260902151605 54 40 0.0 4.0 0.00 0.00 0.00 93 1011.5
20260902150034 53 101 0.0 3.0 0.00 0.00 0.00 94 1011.6
20260902144535 52 144 1.0 3.0 0.00 0.00 0.00 95 1011.8
20260902143108 50 157 0.0 2.0 0.00 0.00 0.00 95 1011.8
20260902141532 49 141 2.0 4.0 0.00 0.00 0.00 95 1011.9
20260902140036 47 175 3.0 4.0 0.00 0.00 0.00 94 1012.0
20260902134535 46 158 3.0 5.0 0.00 0.00 0.00 93 1011.8
20260902133033 46 178 2.0 4.0 0.00 0.00 0.00 92 1011.9
20260902131643 45 164 3.0 4.0 0.00 0.00 0.00 92 1011.9
20260902130034 45 164 2.0 5.0 0.00 0.00 0.00 92 1011.9
20260902124536 45 154 2.0 4.0 0.00 0.00 0.00 90 1011.9
20260902123034 46 185 3.0 4.0 0.00 0.00 0.00 89 1012.0
20260902121533 46 155 2.0 5.0 0.00 0.00 0.00 87 1012.1
20260902120106 48 165 0.0 3.0 0.00 0.00 0.00 85 1012.2
20260902114608 49 94 0.0 4.0 0.00 0.00 0.00 84 1012.2
20260902111641 53 107 2.0 6.0 0.00 0.00 0.00 77 1012.0
20260902110107 55 197 4.0 12.0 0.00 0.00 0.00 73 1012.2
20260902104534 56 326 6.0 14.0 0.00 0.00 0.00 72 1012.3
20260902103034 56 307 5.0 15.0 0.00 0.00 0.00 72 1012.5
20260902101536 56 292 5.0 19.0 0.00 0.00 0.00 72 1012.6
20260902100034 57 309 6.0 15.0 0.00 0.00 0.00 71 1012.8
20260902094644 57 319 7.0 14.0 0.00 0.00 0.00 71 1012.9
20260902093032 57 320 7.0 14.0 0.00 0.00 0.00 71 1013.0
20260902091537 57 317 6.0 14.0 0.00 0.00 0.00 71 1013.0
20260902090037 57 316 5.0 13.0 0.00 0.00 0.00 71 1013.0
20260902084536 57 324 6.0 13.0 0.00 0.00 0.00 71 1013.0
20260902081605 57 316 4.0 10.0 0.00 0.00 0.00 72 1013.2
20260902080028 56 320 5.0 11.0 0.00 0.00 0.00 73 1013.2
20260902071611 57 325 7.0 16.0 0.00 0.00 0.00 72 1013.4
20260902070030 57 323 6.0 14.0 0.00 0.00 0.00 72 1013.6
20260902064534 58 312 6.0 15.0 0.00 0.00 0.00 71 1013.8
20260902063030 58 315 5.0 14.0 0.00 0.00 0.00 71 1014.0
20260902061536 59 318 6.0 15.0 0.00 0.00 0.00 70 1014.1
20260902060037 59 315 4.0 10.0 0.00 0.00 0.00 69 1014.3
20260902054531 59 308 6.0 17.0 0.00 0.00 0.00 69 1014.2
20260902053032 59 309 3.0 10.0 0.00 0.00 0.00 69 1014.0
20260902051535 59 301 5.0 16.0 0.00 0.00 0.00 69 1014.0
20260902050034 59 304 5.0 17.0 0.00 0.00 0.00 70 1014.0
20260902044532 59 292 3.0 10.0 0.00 0.00 0.00 70 1013.7
20260902043052 59 308 4.0 11.0 0.00 0.00 0.00 69 1013.7
20260902041532 59 348 4.0 12.0 0.00 0.00 0.00 69 1013.6
20260902040035 59 343 3.0 8.0 0.00 0.00 0.00 69 1013.4
20260902034607 59 335 4.0 10.0 0.00 0.00 0.00 68 1013.1
20260902033035 60 306 4.0 11.0 0.00 0.00 0.00 67 1013.1
20260902031537 60 325 9.0 18.0 0.00 0.00 0.00 67 1012.9
20260902030035 60 303 6.0 20.0 0.00 0.00 0.00 67 1013.0
20260902024536 60 309 5.0 13.0 0.00 0.00 0.00 67 1013.2
20260902023106 60 302 4.0 13.0 0.00 0.00 0.00 66 1012.9
20260902020035 61 316 4.0 13.0 0.00 0.00 0.00 64 1013.0
20260902014533 62 299 5.0 15.0 0.00 0.00 0.00 62 1012.8
20260902013033 63 294 5.0 18.0 0.00 0.00 0.00 61 1012.7
20260902010035 64 310 7.0 15.0 0.00 0.00 0.00 60 1012.5
20260902004538 65 325 7.0 17.0 0.00 0.00 0.00 60 1012.3
20260902003035 65 317 5.0 16.0 0.00 0.00 0.00 61 1012.1
20260902001537 65 324 9.0 19.0 0.00 0.00 0.00 59 1012.0
20260902000034 66 307 7.0 18.0 0.00 0.00 0.00 59 1012.1
20260901234607 66 305 6.0 16.0 0.00 0.00 0.00 59 1012.0
20260901231536 69 299 5.0 14.0 0.00 0.00 0.00 57 1011.9
20260901224538 69 277 8.0 21.0 0.00 0.00 0.00 58 1011.7
20260901223107 69 294 6.0 20.0 0.00 0.00 0.00 56 1011.6
20260901221647 71 290 7.0 15.0 0.00 0.00 0.00 56 1011.5
20260901220035 71 274 6.0 20.0 0.00 0.00 0.00 55 1011.2
20260901214536 72 273 7.0 19.0 0.00 0.00 0.00 55 1011.0
20260901213035 72 288 7.0 23.0 0.00 0.00 0.00 55 1011.1
20260901211533 71 310 6.0 18.0 0.00 0.00 0.00 55 1011.3
20260901210108 71 316 6.0 17.0 0.00 0.00 0.00 55 1011.4
20260901204644 70 309 7.0 18.0 0.00 0.00 0.00 55 1011.5
20260901203035 71 301 6.0 15.0 0.00 0.00 0.00 55 1011.5
20260901201535 70 316 6.0 22.0 0.00 0.00 0.00 58 1011.5
20260901200037 68 358 9.0 19.0 0.00 0.00 0.00 58 1011.7
20260901194533 69 347 11.0 19.0 0.00 0.00 0.00 56 1011.9
20260901190035 73 263 2.0 14.0 0.00 0.00 0.00 57 1012.8
20260901183035 71 222 1.0 4.0 0.00 0.00 0.00 59 1013.0
20260901181536 70 154 1.0 7.0 0.00 0.00 0.00 62 1013.2
20260901180040 67 95 2.0 4.0 0.00 0.00 0.00 67 1013.3
20260901174536 64 145 2.0 5.0 0.00 0.00 0.00 74 1013.3